Dewpoint
69 69 69 69 68 67 67 67 66 67 68 68 66 65 65 64 64 63 63 64 64 64 62 60 60 60 59 58 59 59 61 62 63 63 63 63 64 63 65 67 68 68 67 65 65 64 63 63 62 61 61 61 61 60 60 60 59 60 59 59 60 62 65 65 64 64 64 62 62 61 60 60 60 60 59 58 58 58 58 58 58 57 56 56 56
68 69 68 67 66 66 66 65 65 66 67 67 67 66 64 64 64 63 62 63 63 63 62 60 56 59 58 58 58 58 61 61 61 61 63 64 65 64 65 67 67 67 68 67 65 64 64 63 62 61 61 61 61 60 59 60 60 59 59 60 57 62 63 65 64 64 64 63 61 60 60 60 59 59 59 59 59 58 58 58 57 57 56 56 56
67 66 65 65 65 65 66 66 65 65 67 66 67 67 66 65 65 64 62 59 61 62 61 60 58 56 57 56 57 59 59 61 60 60 60 63 64 65 63 65 67 67 67 67 68 65 64 63 63 62 61 61 60 60 60 60 60 59 60 60 58 61 63 64 65 64 64 62 61 61 60 60 60 59 58 57 57 58 58 58 57 57 56 56 56
65 65 64 65 64 65 66 64 65 65 65 67 66 67 67 65 65 66 65 63 62 62 63 62 61 59 59 58 58 59 58 60 60 60 60 62 63 64 64 63 67 67 67 67 67 68 65 64 63 63 62 62 61 60 60 60 59 60 59 60 59 60 62 63 65 64 63 63 62 61 60 59 59 59 59 58 57 57 57 57 57 57 56 56 56
66 66 64 65 65 65 66 65 66 65 65 66 66 67 67 66 66 65 65 64 63 63 62 63 63 62 62 60 61 58 58 58 61 62 61 61 62 63 64 64 63 67 66 67 67 67 67 65 64 63 62 62 61 61 61 60 60 59 59 60 60 59 61 63 64 64 63 63 62 62 60 60 59 58 58 58 57 57 57 57 57 56 56 56 56
65 65 65 65 66 65 65 66 65 65 65 66 65 66 66 66 67 65 63 63 62 62 61 61 63 62 63 62 62 62 61 59 60 62 63 62 61 64 63 63 63 64 65 67 67 66 66 67 65 65 63 63 62 62 61 61 61 60 59 60 59 59 60 62 63 64 63 63 62 62 61 60 59 59 58 58 57 57 57 56 56 56 56 55 55
65 66 67 66 65 65 65 65 66 65 65 65 65 64 65 65 65 65 64 63 63 63 62 61 62 62 63 64 62 60 62 61 62 62 61 63 64 63 64 63 63 63 63 63 67 67 66 66 67 66 64 63 63 63 62 61 61 61 60 59 60 59 60 62 63 65 63 63 62 61 61 60 59 59 58 58 57 56 56 56 56 56 56 55 55
65 66 66 65 66 65 65 65 66 66 65 65 65 64 64 65 66 65 64 63 63 62 62 62 63 63 64 64 64 62 61 60 62 60 60 62 61 63 64 64 64 63 64 63 64 66 66 66 66 67 66 65 64 63 63 62 61 62 61 59 60 61 60 61 62 64 64 63 63 62 61 60 59 59 58 58 57 56 56 56 56 55 55 55 55
65 65 66 65 65 65 66 65 65 66 66 66 65 65 63 63 64 65 65 63 63 64 64 63 63 63 63 63 63 64 63 61 60 62 59 62 62 61 63 63 64 64 65 64 65 64 66 66 66 66 66 66 66 64 64 63 62 61 61 61 60 61 60 60 62 63 65 64 63 62 61 60 59 59 58 58 58 57 56 56 55 55 55 55 54
65 65 65 65 64 65 65 65 65 65 65 65 65 65 64 63 63 64 64 64 63 63 63 63 62 60 62 62 64 63 63 63 62 61 60 60 62 61 61 62 63 63 63 64 63 65 64 65 66 65 65 65 66 65 65 64 63 62 61 61 61 60 61 60 60 62 64 65 64 62 61 60 60 58 58 58 58 57 56 56 56 55 54 54 54
64 64 64 64 63 65 64 64 64 65 64 63 64 64 64 63 63 63 64 65 64 63 64 64 62 61 60 61 61 62 63 63 63 61 60 60 59 60 59 62 63 62 64 64 64 65 65 64 64 64 64 65 65 66 65 65 64 63 62 62 60 61 61 61 61 60 61 65 64 63 61 61 60 59 58 58 58 57 57 56 56 56 55 54 54
64 65 64 63 63 64 64 64 64 64 64 63 64 64 64 64 63 63 63 63 65 64 64 64 65 64 64 62 62 62 60 61 63 61 61 62 62 61 61 60 62 63 63 63 64 64 65 65 64 62 62 63 65 65 66 65 65 65 63 62 62 61 62 61 61 61 61 64 65 63 62 61 60 59 58 58 58 57 57 56 56 55 55 54 54
61 62 64 62 63 63 64 64 64 63 63 64 64 63 63 63 64 64 62 62 63 64 64 64 63 63 62 62 62 61 61 61 61 60 59 60 61 62 62 62 61 63 63 63 63 63 63 64 64 64 63 62 65 64 64 64 64 65 65 64 63 62 61 61 61 60 60 62 65 64 62 62 60 60 59 58 58 57 57 56 56 55 55 54 54
61 63 64 63 62 62 63 63 63 62 63 62 62 63 62 62 63 63 63 63 63 64 63 63 60 60 59 59 61 62 61 62 60 58 59 59 61 62 63 62 60 62 64 63 63 62 62 63 64 63 63 63 62 64 64 65 65 65 66 65 64 63 62 61 62 62 61 60 65 65 63 62 61 60 59 58 57 57 57 56 56 55 55 55 54
59 60 61 62 62 61 61 60 61 61 61 61 62 63 62 62 62 62 61 62 63 63 63 64 60 60 61 59 57 57 61 59 60 60 58 58 59 59 59 59 58 60 61 62 62 62 61 62 62 63 64 64 62 62 64 63 63 64 65 65 65 64 64 63 62 62 62 61 65 65 63 62 61 60 60 59 58 57 57 56 56 55 55 55 54
56 55 57 59 60 59 59 59 59 60 59 58 59 59 61 62 62 62 61 60 61 62 64 64 64 61 57 58 58 57 56 57 58 60 60 58 58 57 57 57 58 59 60 60 60 62 62 61 61 62 64 63 63 63 63 63 62 63 63 64 64 64 64 64 64 63 62 63 63 65 64 63 62 61 60 59 58 58 58 57 56 55 55 55 54
57 57 55 58 59 58 57 58 57 58 57 57 57 57 55 57 60 62 61 61 61 61 61 64 63 64 62 57 56 56 57 58 59 60 62 60 57 56 57 57 56 58 58 58 59 62 62 61 63 63 64 63 63 63 63 63 62 64 64 63 64 64 65 64 65 64 63 62 61 65 65 64 62 62 60 59 58 58 58 57 56 56 55 55 55
56 56 56 56 57 57 57 55 56 56 56 55 55 55 56 55 56 58 59 61 59 59 60 60 61 62 62 62 61 58 57 59 59 57 61 60 61 58 58 59 59 58 58 58 58 59 61 62 63 63 63 63 63 62 62 62 63 63 64 63 62 62 61 63 65 65 64 63 62 62 65 65 63 62 61 60 59 58 57 57 57 56 56 55 55
56 56 57 56 57 57 57 56 55 55 55 53 53 53 52 53 54 55 54 56 59 57 57 57 60 59 60 62 62 62 62 59 58 59 58 61 60 62 59 58 58 57 56 57 58 60 61 61 61 60 61 63 63 62 63 62 61 62 63 62 61 61 59 59 60 64 65 64 63 61 64 65 64 63 61 60 59 59 58 57 57 57 57 56 56
55 55 55 55 55 55 56 55 52 51 49 49 50 51 52 52 54 54 54 55 56 55 55 55 56 56 58 59 60 61 62 61 61 59 58 58 59 62 60 60 60 61 60 59 59 59 60 61 59 59 61 60 61 61 62 61 62 62 62 60 60 60 59 58 57 57 61 64 64 63 64 64 65 63 62 61 60 59 58 58 57 57 57 56 56
54 55 56 53 54 55 55 53 52 50 48 49 50 50 52 52 52 52 53 53 54 55 55 54 55 55 56 57 58 58 59 60 59 59 58 57 58 58 59 62 62 64 64 61 60 62 61 59 59 59 60 62 62 61 60 62 62 63 61 59 59 59 59 58 56 56 56 60 64 65 63 64 65 65 63 61 60 60 59 58 57 57 56 56 56
56 55 55 53 54 54 53 53 54 51 49 50 51 52 53 52 53 53 53 52 52 52 53 53 53 54 55 56 55 55 54 55 55 55 56 57 55 56 57 57 57 61 60 63 60 58 58 61 61 59 60 61 61 61 61 62 63 61 60 59 59 59 58 57 55 54 55 57 62 64 65 63 64 64 64 62 62 61 60 59 58 58 57 57 57
55 56 56 54 56 55 54 54 53 53 50 49 50 49 51 52 53 53 53 52 50 51 52 53 52 52 53 53 53 53 53 52 52 52 53 53 52 51 53 53 53 54 57 59 58 55 57 62 62 60 60 61 63 62 62 62 61 59 59 59 58 58 57 56 55 54 54 58 61 63 64 64 64 63 64 63 62 62 61 60 59 59 57 57 57
55 53 55 56 56 55 55 54 52 52 51 51 50 49 50 50 50 51 51 52 52 51 52 52 52 50 52 51 51 52 52 51 52 53 53 51 52 50 49 50 50 50 52 56 55 54 55 56 56 57 60 66 62 61 61 61 60 59 59 59 58 56 55 56 56 56 54 57 59 62 64 65 64 64 64 64 64 63 62 62 60 59 58 57 57
52 52 55 56 55 55 54 52 52 53 52 50 51 50 49 48 48 49 50 50 50 51 50 52 52 51 50 51 50 49 49 51 51 52 53 53 52 49 49 48 49 50 49 50 50 49 50 51 53 54 55 56 56 57 59 60 60 60 58 59 57 56 55 55 54 54 53 53 55 59 61 63 64 63 64 64 64 64 63 61 59 56 56 56 56
53 53 55 56 55 55 55 54 52 52 53 53 52 50 49 45 47 47 48 49 50 50 49 50 51 51 51 49 48 47 48 50 51 51 51 52 50 50 50 49 51 47 47 47 47 46 46 51 51 51 52 53 54 57 60 59 61 59 58 59 59 56 55 54 53 53 52 52 52 53 55 58 61 62 62 63 63 60 59 57 55 54 53 53 55
53 56 56 56 56 55 55 54 53 53 53 53 52 51 50 46 46 49 49 48 48 47 47 47 47 47 49 47 48 47 47 46 48 49 49 52 52 52 51 47 47 48 47 46 46 47 47 47 48 49 50 55 57 59 59 59 58 57 56 61 62 56 54 54 54 53 52 52 52 52 52 54 55 57 57 57 56 58 59 57 55 54 53 53 53
56 56 57 56 55 55 54 53 52 52 52 51 50 48 49 47 46 48 48 48 48 47 47 47 47 48 47 48 46 45 47 47 47 47 47 50 51 52 51 50 45 43 45 46 46 45 48 48 47 49 50 55 56 57 59 56 57 57 59 61 62 61 55 53 53 52 52 52 51 51 51 52 53 53 54 56 57 58 58 57 55 53 53 53 53
55 57 56 56 55 55 53 53 53 52 52 51 50 49 49 47 47 47 47 48 47 46 47 46 47 46 46 47 45 45 46 48 47 47 48 49 48 49 49 49 49 46 43 43 45 46 47 49 47 48 50 52 57 58 57 55 56 58 58 60 62 62 58 54 52 52 52 51 50 50 50 51 52 52 53 55 56 57 58 56 55 53 53 54 53
55 56 56 55 56 54 53 52 52 52 51 51 49 48 49 47 47 46 47 48 47 48 48 47 47 47 46 46 45 44 46 47 46 48 48 48 47 47 46 48 48 47 46 45 44 47 47 49 49 48 51 53 52 54 54 53 54 57 57 58 60 61 57 54 53 52 52 51 50 50 51 51 51 52 53 54 55 56 56 56 54 53 54 54 52
54 55 55 54 54 54 53 50 51 51 51 51 50 49 47 47 47 45 48 47 45 46 47 47 47 46 46 45 45 44 45 45 45 46 47 46 46 45 45 47 48 49 48 46 44 45 49 49 51 50 49 49 48 52 52 54 55 58 59 60 59 56 55 56 53 53 52 52 51 51 52 53 52 51 52 53 54 55 55 55 56 54 54 53 51
54 54 53 53 53 52 51 50 50 49 49 50 49 49 48 47 46 44 47 47 43 44 45 46 43 45 44 42 42 41 41 39 41 42 42 45 46 45 46 46 47 48 48 46 45 44 46 47 47 47 47 52 49 48 49 51 54 55 56 57 60 56 59 59 53 52 52 51 51 51 51 51 51 51 50 51 53 54 55 55 55 54 53 52 52
54 54 53 52 51 51 49 48 46 48 49 50 50 48 47 47 46 47 46 44 42 43 44 46 45 43 41 39 38 38 41 39 38 38 39 42 43 44 46 45 45 46 46 46 45 44 46 48 48 47 48 51 47 48 50 52 54 54 52 54 56 60 60 60 60 52 50 50 50 50 50 50 51 51 49 49 51 51 53 53 54 52 52 52 50
53 52 51 53 51 50 48 46 46 46 47 47 48 47 46 47 48 49 47 44 43 43 44 42 43 42 42 39 37 39 38 38 40 34 33 36 38 38 40 44 42 44 47 46 44 45 45 46 46 48 49 51 48 48 52 52 52 53 50 51 52 53 57 59 58 60 50 50 49 49 49 49 49 49 49 49 49 49 51 52 52 51 51 50 50
53 52 51 52 51 49 48 47 46 47 47 47 48 47 46 45 44 46 46 44 44 44 43 41 37 39 40 40 38 39 41 40 40 40 40 38 37 37 41 42 42 44 44 45 44 44 43 44 46 44 46 49 50 45 45 48 49 49 48 51 51 51 52 57 58 58 52 49 49 49 49 49 49 48 48 49 48 48 49 50 51 50 49 49 49
51 52 52 51 50 49 48 46 46 47 47 48 47 46 44 43 43 43 44 44 43 42 40 39 37 39 39 39 39 38 39 39 38 38 37 39 39 38 39 41 42 43 45 46 45 44 43 42 44 42 43 43 44 44 44 45 45 45 46 48 50 50 51 51 54 56 53 48 47 48 49 49 48 48 48 48 48 48 48 50 50 50 49 48 48
51 52 51 51 50 48 49 46 46 47 47 46 46 46 46 45 44 44 43 42 42 40 41 40 39 39 38 38 38 38 38 39 39 38 37 40 36 38 39 37 38 40 43 43 43 42 42 42 42 43 44 43 43 43 43 43 43 43 44 47 47 49 53 55 54 54 53 51 50 49 48 48 48 48 48 48 48 48 48 49 49 50 49 49 48
51 51 51 50 49 47 46 45 46 46 46 46 45 44 44 44 44 44 42 41 40 39 39 39 38 39 40 38 38 37 37 38 38 38 39 40 38 39 38 37 36 38 41 42 42 42 41 41 42 41 42 42 42 43 43 45 45 44 43 45 46 47 50 54 54 55 57 55 59 58 50 47 48 47 48 48 48 47 48 48 49 49 49 49 48
51 53 52 50 50 47 46 47 47 47 47 46 45 45 43 42 41 40 41 41 40 41 39 38 38 39 38 37 39 38 38 38 39 38 39 40 40 41 40 41 40 40 41 41 40 40 40 40 40 40 40 41 43 42 41 43 44 44 45 45 45 45 47 50 53 54 56 58 56 51 52 51 49 50 48 48 48 48 48 48 48 49 49 48 48
50 51 50 50 50 48 48 47 48 49 46 44 43 42 41 41 41 40 40 41 39 39 40 38 39 38 38 37 37 37 37 38 39 39 40 40 40 40 40 41 41 40 40 39 39 38 39 40 39 38 38 39 40 42 41 44 43 43 42 45 45 45 48 49 53 53 54 55 55 56 50 49 49 49 47 47 47 47 47 47 48 49 49 48 47
52 51 51 52 51 49 48 48 47 46 45 43 42 41 41 39 39 39 38 35 37 36 36 36 37 37 37 38 38 38 39 40 41 41 41 41 39 38 39 40 40 39 39 38 38 37 38 38 38 39 39 38 39 40 40 41 42 42 44 46 46 46 46 46 46 48 51 53 53 54 54 56 56 56 56 56 55 50 50 48 50 49 49 48 47
50 51 51 51 50 49 47 46 45 45 44 43 42 40 40 35 34 33 36 35 34 34 35 35 36 36 37 38 39 40 41 41 41 40 40 40 41 40 37 38 38 39 38 38 37 36 37 36 37 37 37 37 38 40 41 42 43 44 43 44 43 43 45 46 47 48 49 52 52 52 52 54 55 55 55 55 57 56 56 54 53 52 50 47 47
51 50 50 49 50 49 46 44 43 43 42 39 38 37 37 38 35 35 33 33 34 34 34 34 34 35 35 34 36 38 39 39 39 39 39 38 38 38 39 40 40 38 37 37 37 37 37 36 36 37 36 37 39 40 41 41 42 42 43 43 43 44 43 42 42 46 51 52 52 51 51 54 54 53 53 54 55 56 56 55 49 48 48 47 47
51 51 51 49 48 46 44 42 42 41 38 38 36 36 37 36 37 33 34 33 34 33 33 33 33 34 34 36 37 38 38 37 36 35 36 37 37 37 37 37 37 37 38 38 37 36 37 35 35 36 36 37 37 39 39 41 40 40 42 43 43 43 44 43 44 43 47 55 51 51 51 54 54 54 54 54 55 55 55 52 48 48 48 47 47
51 49 48 47 45 43 42 40 39 37 33 37 36 36 36 35 35 35 30 33 33 32 33 33 34 35 35 36 36 37 37 37 37 36 36 36 37 37 38 38 38 37 36 36 37 39 37 36 36 36 35 36 36 37 39 40 41 41 41 39 41 42 43 42 43 44 47 53 52 51 50 52 52 53 53 54 55 55 55 49 48 47 47 47 47
49 47 45 44 43 42 41 40 37 35 33 36 35 36 35 35 34 34 33 34 34 33 33 34 35 35 35 35 35 35 36 36 36 36 36 36 36 36 35 35 35 36 36 37 36 36 38 38 36 35 36 37 35 37 38 38 39 39 39 39 41 41 42 43 46 47 49 52 50 49 49 49 51 51 51 53 54 54 55 52 47 47 46 46 46
46 44 43 42 42 41 39 38 36 36 35 36 35 35 34 35 34 35 34 35 34 34 34 35 35 35 35 36 36 35 35 35 36 36 35 34 34 34 34 34 34 34 34 35 36 37 38 38 37 36 36 36 36 37 37 37 38 39 40 40 41 42 43 45 46 47 48 48 49 49 45 46 50 50 51 52 53 53 54 50 46 46 46 46 45
44 43 43 42 41 40 39 40 38 36 39 35 35 35 34 34 34 34 32 33 32 32 33 34 33 34 34 35 35 35 35 35 34 34 35 34 33 33 33 33 33 33 34 34 35 36 36 36 36 36 36 37 36 39 38 37 37 39 38 39 40 40 39 39 37 40 43 44 47 46 46 45 48 47 49 50 52 51 52 52 44 45 45 45 45
41 41 40 39 36 36 37 36 35 35 35 36 34 34 34 33 34 30 31 28 29 31 32 33 33 33 35 34 33 33 33 33 33 34 34 35 33 32 32 33 33 33 33 34 34 35 35 35 35 35 35 35 35 35 35 36 38 38 37 36 37 39 38 38 38 38 38 40 42 45 44 43 46 47 47 48 49 50 50 50 50 43 43 44 44
39 39 41 39 37 37 35 35 35 34 33 35 35 35 34 34 34 31 27 28 30 30 31 32 33 33 33 34 34 33 33 32 33 33 34 34 32 31 31 31 31 31 31 32 33 33 34 35 35 35 35 35 35 35 36 36 36 37 37 34 36 36 37 37 36 37 38 39 40 45 44 42 44 46 46 47 47 48 48 47 47 46 42 42 42
40 39 37 35 35 37 37 38 38 36 34 35 36 35 35 35 34 31 28 27 28 29 30 30 32 32 31 32 33 33 33 33 33 33 33 33 31 31 31 31 30 30 31 32 32 31 32 32 33 33 34 35 36 35 36 36 36 37 37 37 36 35 35 36 37 37 36 38 39 44 43 42 44 44 46 46 46 48 45 45 44 46 46 46 45